This is the latest recevied weather packets stored in our database for station/object OK1UZT-14. If no packets are shown the sender has not sent any weather packets the latest 10 day(s).
| Time | Temp. | Humidity | Pressure | Rain* | Wind** | Luminosity | Snow |
|---|---|---|---|---|---|---|---|
| 1788165616 | 22.78° C | 64% | 1014.2 hPa | - | - | - | - |
| 1788165018 | 22.78° C | 64% | 1014.2 hPa | - | - | - | - |
| 1788164417 | 22.22° C | 65% | 1014.1 hPa | - | - | - | - |
| 1788163817 | 22.22° C | 65% | 1014.1 hPa | - | - | - | - |
| 1788163217 | 21.67° C | 64% | 1014.1 hPa | - | - | - | - |
| 1788162616 | 21.67° C | 65% | 1014.2 hPa | - | - | - | - |
| 1788162018 | 21.67° C | 65% | 1014.2 hPa | - | - | - | - |
| 1788161417 | 21.67° C | 64% | 1014.1 hPa | - | - | - | - |
| 1788160816 | 21.67° C | 64% | 1014.2 hPa | - | - | - | - |
| 1788160216 | 21.67° C | 64% | 1014.3 hPa | - | - | - | - |
| 1788159017 | 21.67° C | 61% | 1014.3 hPa | - | - | - | - |
| 1788158416 | 21.11° C | 61% | 1014.5 hPa | - | - | - | - |
| 1788157816 | 21.11° C | 62% | 1014.7 hPa | - | - | - | - |
| 1788157217 | 20.56° C | 62% | 1014.7 hPa | - | - | - | - |
| 1788156617 | 19.44° C | 65% | 1014.6 hPa | - | - | - | - |
| 1788156019 | 18.89° C | 66% | 1014.7 hPa | - | - | - | - |
| 1788155415 | 18.89° C | 67% | 1014.8 hPa | - | - | - | - |
| 1788154816 | 18.33° C | 68% | 1014.8 hPa | - | - | - | - |
| 1788154215 | 18.33° C | 72% | 1014.7 hPa | - | - | - | - |
| 1788153615 | 18.33° C | 68% | 1014.6 hPa | - | - | - | - |
| 1788153015 | 18.33° C | 68% | 1014.6 hPa | - | - | - | - |
| 1788152415 | 17.78° C | 68% | 1014.6 hPa | - | - | - | - |
| 1788151815 | 17.78° C | 68% | 1014.5 hPa | - | - | - | - |
| 1788151215 | 17.78° C | 68% | 1014.5 hPa | - | - | - | - |
| 1788150616 | 17.78° C | 68% | 1014.6 hPa | - | - | - | - |
* Rain since midnight (hover to see other rain measurements)
** Current wind speed in m/s (hover to see current wind gust speed)